Stündliche Wetter Abaran

Heute, 25 Februar, Donnerstag

Zeit Temperatur Niederschläge Wind Luftdruck Luftfeuchtigkeit
00:00 +8°C° 0 mm 1 m/S 738 mmHg 94%
01:00 +8°C° 0 mm 1 m/S 737 mmHg 94%
02:00 +7°C° 0 mm 0 m/S 737 mmHg 93%
03:00 +6°C° 0 mm 0 m/S 736 mmHg 93%
04:00 +8°C° 0 mm 1 m/S 736 mmHg 93%
05:00 +8°C° 0 mm 1 m/S 736 mmHg 92%
06:00 +9°C° 0 mm 1 m/S 737 mmHg 93%
07:00 +10°C° 0 mm 1 m/S 737 mmHg 89%
08:00 +10°C° 0 mm 1 m/S 737 mmHg 86%
09:00 +10°C° 0 mm 2 m/S 737 mmHg 83%
10:00 +12°C° 0 mm 2 m/S 737 mmHg 79%
11:00 +13°C° 0 mm 2 m/S 737 mmHg 76%
12:00 +13°C° 0 mm 3 m/S 736 mmHg 72%
13:00 +13°C° 0 mm 3 m/S 736 mmHg 70%
14:00 +14°C° 0 mm 3 m/S 736 mmHg 67%
15:00 +14°C° 0 mm 4 m/S 736 mmHg 65%
16:00 +13°C° 0 mm 3 m/S 735 mmHg 72%
17:00 +12°C° 0 mm 3 m/S 735 mmHg 79%
18:00 +12°C° 0 mm 2 m/S 735 mmHg 86%
19:00 +10°C° 0 mm 2 m/S 736 mmHg 89%
20:00 +10°C° 0 mm 1 m/S 736 mmHg 92%
21:00 +10°C° 0 mm 1 m/S 736 mmHg 94%
22:00 +9°C° 0 mm 1 m/S 736 mmHg 94%
23:00 +9°C° 0 mm 1 m/S 736 mmHg 95%

Morgen, 26 Februar, Freitag

Zeit Temperatur Niederschläge Wind Luftdruck Luftfeuchtigkeit
00:00 +9°C° 0 mm 1 m/S 736 mmHg 95%
01:00 +9°C° 0 mm 1 m/S 736 mmHg 94%
02:00 +9°C° 0 mm 1 m/S 736 mmHg 93%
03:00 +9°C° 0 mm 1 m/S 736 mmHg 93%
04:00 +8°C° 0 mm 1 m/S 736 mmHg 92%
05:00 +8°C° 0 mm 1 m/S 736 mmHg 92%
06:00 +8°C° 0 mm 1 m/S 736 mmHg 92%
07:00 +9°C° 0 mm 1 m/S 736 mmHg 86%
08:00 +10°C° 0 mm 1 m/S 736 mmHg 79%
09:00 +12°C° 0 mm 1 m/S 737 mmHg 73%
10:00 +13°C° 0 mm 2 m/S 737 mmHg 65%
11:00 +14°C° 0 mm 2 m/S 737 mmHg 57%
12:00 +16°C° 0 mm 2 m/S 737 mmHg 48%
13:00 +16°C° 0 mm 2 m/S 736 mmHg 47%
14:00 +17°C° 0 mm 3 m/S 736 mmHg 45%
15:00 +17°C° 0 mm 3 m/S 735 mmHg 44%
16:00 +14°C° 0 mm 3 m/S 735 mmHg 53%
17:00 +14°C° 0 mm 2 m/S 735 mmHg 63%
18:00 +12°C° 0 mm 2 m/S 735 mmHg 73%
19:00 +10°C° 0 mm 2 m/S 735 mmHg 77%
20:00 +10°C° 0 mm 1 m/S 735 mmHg 82%
21:00 +9°C° 0 mm 1 m/S 735 mmHg 87%
22:00 +9°C° 0 mm 1 m/S 735 mmHg 87%
23:00 +8°C° 0 mm 1 m/S 735 mmHg 88%

übermorgen, 27 Februar, Samstag

Zeit Temperatur Niederschläge Wind Luftdruck Luftfeuchtigkeit
00:00 +8°C° 0 mm 1 m/S 735 mmHg 89%
01:00 +8°C° 0 mm 1 m/S 735 mmHg 88%
02:00 +7°C° 0 mm 1 m/S 735 mmHg 87%
03:00 +7°C° 0 mm 1 m/S 734 mmHg 85%
04:00 +7°C° 0 mm 1 m/S 734 mmHg 84%
05:00 +7°C° 0 mm 1 m/S 734 mmHg 83%
06:00 +6°C° 0 mm 1 m/S 734 mmHg 82%
07:00 +8°C° 0 mm 1 m/S 734 mmHg 74%
08:00 +10°C° 0 mm 1 m/S 735 mmHg 65%
09:00 +12°C° 0 mm 1 m/S 735 mmHg 56%
10:00 +13°C° 0 mm 2 m/S 735 mmHg 50%
11:00 +14°C° 0 mm 2 m/S 735 mmHg 44%
12:00 +16°C° 0 mm 2 m/S 735 mmHg 38%
13:00 +16°C° 0 mm 3 m/S 734 mmHg 38%
14:00 +16°C° 0 mm 3 m/S 734 mmHg 38%
15:00 +17°C° 0 mm 4 m/S 734 mmHg 38%
16:00 +14°C° 0 mm 3 m/S 733 mmHg 46%
17:00 +13°C° 0 mm 3 m/S 733 mmHg 54%
18:00 +12°C° 0 mm 2 m/S 733 mmHg 62%
19:00 +10°C° 0 mm 2 m/S 733 mmHg 68%
20:00 +9°C° 0 mm 2 m/S 733 mmHg 73%
21:00 +9°C° 0 mm 1 m/S 734 mmHg 78%
22:00 +9°C° 0 mm 1 m/S 733 mmHg 81%
23:00 +9°C° 0 mm 1 m/S 733 mmHg 84%

28 Februar, Sonntag

Zeit Temperatur Niederschläge Wind Luftdruck Luftfeuchtigkeit
00:00 +8°C° 0 mm 1 m/S 733 mmHg 87%
01:00 +8°C° 0 mm 1 m/S 733 mmHg 87%
02:00 +8°C° 0 mm 1 m/S 733 mmHg 87%
03:00 +8°C° 0 mm 1 m/S 733 mmHg 87%
04:00 +8°C° 0 mm 1 m/S 732 mmHg 87%
05:00 +8°C° 0 mm 1 m/S 732 mmHg 88%
06:00 +8°C° 0 mm 1 m/S 732 mmHg 88%
07:00 +8°C° 0 mm 2 m/S 733 mmHg 83%
08:00 +9°C° 0 mm 2 m/S 733 mmHg 78%
09:00 +12°C° 0 mm 2 m/S 733 mmHg 72%
10:00 +12°C° 0 mm 3 m/S 733 mmHg 64%
11:00 +13°C° 0 mm 3 m/S 733 mmHg 56%
12:00 +14°C° 0 mm 4 m/S 733 mmHg 48%
13:00 +15°C° 0 mm 5 m/S 732 mmHg 47%
14:00 +15°C° 0 mm 5 m/S 732 mmHg 46%
15:00 +15°C° 0 mm 6 m/S 731 mmHg 45%
16:00 +14°C° 0 mm 5 m/S 731 mmHg 54%
17:00 +12°C° 0 mm 4 m/S 731 mmHg 62%
18:00 +11°C° 0 mm 3 m/S 731 mmHg 70%
19:00 +10°C° 0 mm 3 m/S 731 mmHg 76%
20:00 +9°C° 0 mm 2 m/S 731 mmHg 82%
21:00 +8°C° 0 mm 2 m/S 732 mmHg 88%
22:00 +8°C° 0 mm 2 m/S 731 mmHg 88%
23:00 +8°C° 0 mm 2 m/S 731 mmHg 89%

1 März, Montag

Zeit Temperatur Niederschläge Wind Luftdruck Luftfeuchtigkeit
00:00 +8°C° 0 mm 1 m/S 731 mmHg 89%
01:00 +7°C° 0 mm 2 m/S 731 mmHg 89%
02:00 +7°C° 0 mm 2 m/S 731 mmHg 89%
03:00 +7°C° 0 mm 2 m/S 730 mmHg 89%
04:00 +7°C° 0 mm 2 m/S 730 mmHg 89%
05:00 +7°C° 0 mm 2 m/S 730 mmHg 90%
06:00 +7°C° 0 mm 2 m/S 730 mmHg 90%
07:00 +8°C° 0 mm 2 m/S 730 mmHg 84%
08:00 +9°C° 0 mm 2 m/S 731 mmHg 78%
09:00 +12°C° 0 mm 2 m/S 731 mmHg 72%
10:00 +12°C° 0 mm 3 m/S 731 mmHg 66%
11:00 +14°C° 0 mm 3 m/S 731 mmHg 60%
12:00 +15°C° 0 mm 4 m/S 732 mmHg 53%
13:00 +15°C° 0 mm 4 m/S 731 mmHg 53%
14:00 +16°C° 0 mm 5 m/S 731 mmHg 52%
15:00 +16°C° 0 mm 6 m/S 731 mmHg 51%
16:00 +15°C° 0 mm 5 m/S 731 mmHg 58%
17:00 +13°C° 0 mm 4 m/S 731 mmHg 64%
18:00 +12°C° 0 mm 3 m/S 731 mmHg 70%
19:00 +11°C° 0 mm 3 m/S 731 mmHg 74%
20:00 +10°C° 0 mm 3 m/S 732 mmHg 77%
21:00 +10°C° 0 mm 3 m/S 732 mmHg 80%
22:00 +10°C° 0 mm 3 m/S 732 mmHg 81%
23:00 +10°C° 0 mm 3 m/S 732 mmHg 81%

2 März, Dienstag

Zeit Temperatur Niederschläge Wind Luftdruck Luftfeuchtigkeit
00:00 +10°C° 0 mm 3 m/S 732 mmHg 82%
01:00 +10°C° 0 mm 3 m/S 732 mmHg 82%
02:00 +10°C° 0 mm 3 m/S 732 mmHg 83%
03:00 +10°C° 0 mm 3 m/S 732 mmHg 84%
04:00 +10°C° 0 mm 3 m/S 732 mmHg 84%
05:00 +10°C° 0 mm 3 m/S 732 mmHg 85%
06:00 +10°C° 0 mm 3 m/S 732 mmHg 85%
07:00 +10°C° 0 mm 3 m/S 733 mmHg 81%
08:00 +11°C° 0 mm 3 m/S 733 mmHg 78%
09:00 +12°C° 0 mm 3 m/S 734 mmHg 74%
10:00 +13°C° 0 mm 4 m/S 734 mmHg 69%
11:00 +14°C° 0 mm 4 m/S 734 mmHg 65%
12:00 +15°C° 0 mm 5 m/S 734 mmHg 60%
13:00 +15°C° 0 mm 5 m/S 734 mmHg 59%
14:00 +15°C° 0 mm 5 m/S 734 mmHg 58%
15:00 +15°C° 0 mm 6 m/S 734 mmHg 57%
16:00 +14°C° 0 mm 5 m/S 734 mmHg 61%
17:00 +13°C° 0 mm 4 m/S 734 mmHg 64%
18:00 +12°C° 0 mm 3 m/S 734 mmHg 68%
19:00 +11°C° 0 mm 3 m/S 735 mmHg 73%
20:00 +10°C° 0 mm 3 m/S 735 mmHg 78%
21:00 +9°C° 0 mm 2 m/S 735 mmHg 82%
22:00 +9°C° 0 mm 2 m/S 736 mmHg 83%
23:00 +9°C° 0 mm 2 m/S 736 mmHg 85%
Mehr zeigen

Wir brauchen deine Erlaubnis

Meteoprog und unser Service Anbieter werden persönliche Daten aufbewahren, so wie Cookies, Geräte Bezeichnung oder ähnliche Technologien von deinem Gerät und Prozess, so wie Persönliche Daten Inhalte und Werbungen, genauso wie social Media und den Verkehr zu analysieren.

  • Aufbewahrung und/oder Zugang zu deiner Geräte Informationen.

    Cookies, Geräte Bezeichnung oder andere Informationen, können aufbewahrt oder Zugang zu deinem Gerät erhalten, für den Grund, der oben angegeben wird.

  • Personalisierte Werbung und Inhalte, Messungen, Einblick in das Publikum und Produkt Entwicklung.

    Werbungen und Inhalte können personalisiert werden, basierend auf ein Profil. Mehr Daten können besser personalisierte Werbungen und Inhalte hinzufügen. Werbung und Inhalte können gezeigt und gemessen werden. Einblicke über das Publikum, welche die Werbung gesehen haben und den Inhalt, können abgeleitet werden. So wie Daten können genutzt werden, um es zu verbessern oder die Benutzer Erfahrung zu verbessern das System und die Software.

Wenn du “Ich stimme zu” klickst, erlaubst du uns, die Cookies zu benutzen die Geräte Bezeichnung, den Web oder ähnliche Technologien zu benutzen. Deine Settings, können in deinem Gerät bei deinem Browser geändert werden.

Für den bestimmten Zweck, berechtigten Interessen beruhen darauf, mehr als auf den Inhalt. Du kannst mehr darüber in unseren Privaten und Cookie Politik lesen.